Simultaneous Nadir Overpasses (SNOs) Predictions

Prediction of SNOs between GOES-16 and NOAA-20 Satellite Orbit:

Table of predicted SNOs for the next 14.0 days since TLE Epoch: 12/10/2022
Index Date Time (GOES-16) GOES-16 Lat,Lon NOAA-20 Lat,Lon Distance(km) Time Diff (sec)
1 12/10/2022 06:13:11 -0.00, -75.19 -0.72, -71.86 378.78 80
2 12/11/2022 18:32:29 0.00, -75.20 -0.42, -77.18 225.21 80
3 12/12/2022 18:16:25 0.00, -75.20 0.55, -72.64 291.58 80
4 12/14/2022 06:38:14 -0.01, -75.21 0.62, -77.92 308.84 80
5 12/15/2022 06:16:51 -0.00, -75.22 -0.41, -73.39 208.23 80
6 12/16/2022 18:38:48 0.01, -75.24 -0.78, -78.70 394.70 80
7 12/17/2022 18:22:45 0.01, -75.25 0.25, -74.18 122.89 80
8 12/19/2022 06:44:34 -0.01, -75.27 0.92, -79.45 476.08 80
9 12/20/2022 06:23:10 -0.00, -75.28 -0.06, -74.91 41.57 80
10 12/22/2022 18:26:23 -0.01, -75.32 -0.09, -75.70 43.46 80
11 12/23/2022 18:10:20 -0.01, -75.33 0.95, -71.18 474.24 80
